{"data":{"norad_id":62789,"intl_designator":"2025-016E","name":"QIANFAN-59","alt_names":[],"object_type":"PAYLOAD","status":"ACTIVE","operator":null,"country":"PRC","launch_date":"2025-01-23","launch_site_code":"TAISC","launch_vehicle":null,"mission":null,"orbit_class":"UNKNOWN","rcs_meters":null,"size_class":null,"mass_kg":null,"dimensions":null,"purposes":[],"wikipedia_slug":null,"has_3d_model":false,"image_url":null,"decayed_at":null,"tle_current":{"epoch":"2026-05-25T03:08:19.721184Z","epoch_age_seconds":61063,"freshness":"FRESH","line1":"1 62789U 25016E   26145.13078381  .00000115  00000+0  15886-3 0  9992","line2":"2 62789  88.9732  86.1562 0012116 230.6503 129.3575 13.51006137 69306","mean_motion":13.51006137,"eccentricity":0.0012116,"inclination_deg":88.9732,"raan_deg":86.1562,"arg_perigee_deg":230.6503,"mean_anomaly_deg":129.3575,"bstar":0.00015886,"rev_number":6930,"period_min":106.58722862633,"perigee_km":1059.5366169666,"apogee_km":1077.5814507959,"semimajor_km":7446.6960338813,"source":"CELESTRAK","updated_at":"2026-05-25T13:38:03.251432Z"}}}